Weather History for Crane Lake, MN

Change the Weather History Date:

Tuesday, January 22, 2013

  Actual Average Record
Temperature  
Mean Temperature -17 °F -  
Max Temperature 0 °F 14 °F 30 °F (2001)
Min Temperature -34 °F -1 °F -34 °F (2013)
Degree Days  
Heating Degree Days 82    
Moisture  
Dew Point -25 °F    
Average Humidity 74    
Maximum Humidity 84    
Minimum Humidity 68    
Precipitation  
Precipitation 0.00 in - - ()
Sea Level Pressure  
Sea Level Pressure 30.20 in    
Wind  
Wind Speed 0 mph (West)    
Max Wind Speed 6 mph    
Max Gust Speed -    
Visibility 10 miles    
Events      
Averages and records for this station are not official NWS values.
T = Trace of Precipitation, MM = Missing Value Source: NWS Daily Summary

Daily Weather History Graph

Daily Weather History Graph

Search for Another Location

Airport:

Trip Planner

Search our weather history database for the weather conditions in past years. The results will help you decide how hot, cold, wet, or windy it might be!

Date:

Astronomy

Jan. 22, 2013 Rise Set
Actual Time 7:49 AM CST 4:54 PM CST
Civil Twilight 7:15 AM CST 5:28 PM CST
Nautical Twilight 6:36 AM CST 6:06 PM CST
Astronomical Twilight 5:59 AM CST 6:43 PM CST
Moon 1:13 PM CST 4:14 AM CST
Length of Visible Light 10h 13m
Length of Day
9h 04m
Waxing Gibbous, 83% of the Moon is Illuminated
Jan 22
Waxing Gibbous
Jan 26
Full
Feb 3
Last Quarter
Feb 10
New
Feb 17
First Quarter

Hourly Weather History & Observations

Time (CST) Temp. Windchill Dew Point Humidity Pressure Visibility Wind Dir Wind Speed Gust Speed Precip Events Conditions
12:14 AM -23.8 °F - -29.2 °F 76% 30.20 in 10.0 mi Calm Calm - N/A   Clear
12:34 AM -25.6 °F - -31.0 °F 76% 30.20 in 10.0 mi Calm Calm - N/A   Clear
12:54 AM -27.4 °F - -32.8 °F 75% 30.20 in 10.0 mi Calm Calm - N/A   Clear
1:13 AM -27.4 °F - -32.8 °F 75% 30.20 in 10.0 mi Calm Calm - N/A   Clear
1:34 AM -27.4 °F - -32.8 °F 75% 30.21 in 10.0 mi Calm Calm - N/A   Scattered Clouds
1:53 AM -25.6 °F - -32.8 °F 69% 30.21 in 10.0 mi Calm Calm - N/A   Scattered Clouds
2:14 AM -27.4 °F - -32.8 °F 75% 30.22 in 10.0 mi Calm Calm - N/A   Clear
2:34 AM -27.4 °F - -34.6 °F 69% 30.22 in 10.0 mi Calm Calm - N/A   Clear
2:54 AM -29.2 °F - -36.4 °F 68% 30.23 in 10.0 mi Calm Calm - N/A   Clear
3:14 AM -29.2 °F - -36.4 °F 68% 30.23 in 10.0 mi Calm Calm - N/A   Clear
3:34 AM -31.0 °F - -38.2 °F 68% 30.22 in 10.0 mi Calm Calm - N/A   Clear
3:54 AM -32.8 °F - -38.2 °F 75% 30.23 in 10.0 mi Calm Calm - N/A   Clear
4:14 AM -32.8 °F - -38.2 °F 75% 30.23 in 10.0 mi Calm Calm - N/A   Clear
4:34 AM -32.8 °F - -38.2 °F 75% 30.23 in 10.0 mi Calm Calm - N/A   Clear
4:53 AM -32.8 °F - -40.0 °F 68% 30.23 in 10.0 mi Calm Calm - N/A   Clear
5:14 AM -32.8 °F - -40.0 °F 68% 30.23 in 10.0 mi Calm Calm - N/A   Clear
5:34 AM -34.6 °F - -41.8 °F 68% 30.24 in 10.0 mi Calm Calm - N/A   Scattered Clouds
5:54 AM -32.8 °F - -40.0 °F 68% 30.25 in 10.0 mi Calm Calm - N/A   Scattered Clouds
6:14 AM -32.8 °F - -38.2 °F 75% 30.25 in 10.0 mi Calm Calm - N/A   Scattered Clouds
6:34 AM -32.8 °F - -40.0 °F 68% 30.25 in 10.0 mi Calm Calm - N/A   Clear
6:54 AM -34.6 °F - -41.8 °F 68% 30.24 in 10.0 mi Calm Calm - N/A   Clear
7:14 AM -34.6 °F - -41.8 °F 68% 30.24 in 10.0 mi Calm Calm - N/A   Clear
7:34 AM -34.6 °F - -41.8 °F 68% 30.24 in 10.0 mi Calm Calm - N/A   Clear
7:53 AM -34.6 °F - -41.8 °F 68% 30.24 in 10.0 mi Calm Calm - N/A   Clear
8:14 AM -34.6 °F - -40.0 °F 75% 30.25 in 10.0 mi Calm Calm - N/A   Clear
8:33 AM -32.8 °F - -38.2 °F 75% 30.25 in 10.0 mi Calm Calm - N/A   Clear
8:53 AM -29.2 °F - -34.6 °F 75% 30.26 in 10.0 mi Calm Calm - N/A   Clear
9:14 AM -25.6 °F - -29.2 °F 83% 30.26 in 10.0 mi Calm Calm - N/A   Clear
9:34 AM -22.0 °F - -27.4 °F 76% 30.26 in 10.0 mi Calm Calm - N/A   Clear
9:53 AM -20.2 °F - -25.6 °F 76% 30.26 in 10.0 mi Calm Calm - N/A   Clear
10:13 AM -14.8 °F - -18.4 °F 84% 30.25 in 10.0 mi Calm Calm - N/A   Clear
10:33 AM -11.2 °F - -16.6 °F 77% 30.25 in 10.0 mi Calm Calm - N/A   Clear
10:53 AM -9.4 °F -18.6 °F -14.8 °F 77% 30.26 in 10.0 mi West 3.5 mph - N/A   Clear
11:14 AM -7.6 °F - -13.0 °F 77% 30.26 in 10.0 mi Calm Calm - N/A   Clear
11:33 AM -5.8 °F -14.5 °F -9.4 °F 84% 30.24 in 10.0 mi South 3.5 mph - N/A   Clear
11:53 AM -2.2 °F - -7.6 °F 78% 30.23 in 10.0 mi Calm Calm - N/A   Clear
12:13 PM -0.4 °F -8.3 °F -7.6 °F 72% 30.23 in 10.0 mi NW 3.5 mph - N/A   Clear
12:34 PM -0.4 °F - -7.6 °F 72% 30.22 in 10.0 mi Calm Calm - N/A   Clear
12:53 PM -2.2 °F -12.5 °F -7.6 °F 78% 30.22 in 10.0 mi NW 4.6 mph - N/A   Clear
1:14 PM -2.2 °F -12.5 °F -7.6 °F 78% 30.21 in 10.0 mi West 4.6 mph - N/A   Clear
1:33 PM -2.2 °F -10.4 °F -7.6 °F 78% 30.21 in 10.0 mi NNW 3.5 mph - N/A   Clear
1:54 PM -2.2 °F -12.5 °F -7.6 °F 78% 30.20 in 10.0 mi NW 4.6 mph - N/A   Clear
2:14 PM -0.4 °F -8.3 °F -5.8 °F 78% 30.19 in 10.0 mi West 3.5 mph - N/A   Clear
2:33 PM -0.4 °F - -5.8 °F 78% 30.19 in 10.0 mi Calm Calm - N/A   Clear
2:53 PM -2.2 °F - -7.6 °F 78% 30.19 in 10.0 mi Calm Calm - N/A   Clear
3:13 PM -2.2 °F -12.5 °F -7.6 °F 78% 30.19 in 10.0 mi WSW 4.6 mph - N/A   Clear
3:33 PM -2.2 °F - -9.4 °F 71% 30.19 in 10.0 mi Calm Calm - N/A   Clear
3:53 PM -4.0 °F -16.3 °F -9.4 °F 78% 30.19 in 10.0 mi West 5.8 mph - N/A   Clear
4:13 PM -4.0 °F -12.4 °F -9.4 °F 78% 30.18 in 10.0 mi SW 3.5 mph - N/A   Clear
4:33 PM -5.8 °F -16.7 °F -11.2 °F 77% 30.18 in 10.0 mi SW 4.6 mph - N/A   Clear
4:53 PM -5.8 °F - -13.0 °F 71% 30.18 in 10.0 mi Calm Calm - N/A   Clear
5:14 PM -7.6 °F - -14.8 °F 71% 30.17 in 10.0 mi Calm Calm - N/A   Clear
5:33 PM -9.4 °F - -16.6 °F 71% 30.18 in 10.0 mi Calm Calm - N/A   Clear
5:54 PM -13.0 °F - -18.4 °F 77% 30.17 in 10.0 mi Calm Calm - N/A   Clear
6:13 PM -14.8 °F - -20.2 °F 77% 30.17 in 10.0 mi Calm Calm - N/A   Clear
6:33 PM -16.6 °F - -23.8 °F 70% 30.16 in 10.0 mi Calm Calm - N/A   Clear
6:54 PM -18.4 °F - -23.8 °F 76% 30.16 in 10.0 mi Calm Calm - N/A   Clear
7:13 PM -18.4 °F - -25.6 °F 70% 30.15 in 10.0 mi Calm Calm - N/A   Scattered Clouds
7:33 PM -18.4 °F - -25.6 °F 70% 30.14 in 10.0 mi Calm Calm - N/A   Clear
7:54 PM -18.4 °F - -23.8 °F 76% 30.13 in 10.0 mi Calm Calm - N/A   Clear
8:13 PM -16.6 °F - -22.0 °F 76% 30.13 in 10.0 mi Calm Calm - N/A   Clear
8:33 PM -16.6 °F - -23.8 °F 70% 30.13 in 10.0 mi Calm Calm - N/A   Clear
8:53 PM -18.4 °F - -23.8 °F 76% 30.13 in 10.0 mi Calm Calm - N/A   Clear
9:14 PM -20.2 °F - -25.6 °F 76% 30.12 in 10.0 mi Calm Calm - N/A   Clear
9:33 PM -20.2 °F - -27.4 °F 69% 30.12 in 10.0 mi Calm Calm - N/A   Clear
9:53 PM -22.0 °F - -27.4 °F 76% 30.12 in 10.0 mi Calm Calm - N/A   Clear
10:13 PM -23.8 °F - -29.2 °F 76% 30.12 in 10.0 mi Calm Calm - N/A   Clear
10:53 PM -25.6 °F - -31.0 °F 76% 30.13 in 10.0 mi Calm Calm - N/A   Clear
11:14 PM -25.6 °F - -31.0 °F 76% 30.13 in 10.0 mi Calm Calm - N/A   Clear
11:33 PM -25.6 °F - -32.8 °F 69% 30.13 in 10.0 mi Calm Calm - N/A   Clear
11:53 PM -25.6 °F - -32.8 °F 69% 30.12 in 10.0 mi Calm Calm - N/A   Clear